Regional Weather Roundup
Issued by NWS

Home | Current Version | Previous Version | Graphics & Text | Print | Product List | Glossary On
Versions: 1 2 3 4 5 6 7 8 9 10 11 12 13 14 15 16 17 18 19 20 21 22 23 24 25 26 27
000
ASUS45 KBOI 282310
RWRID

IDAHO REGIONAL WEATHER ROUNDUP
NATIONAL WEATHER SERVICE BOISE ID
500 PM MDT SAT MAY 28 2016

NOTE: "FAIR" INDICATES FEW OR NO CLOUDS BELOW 12000 FEET
WITH NO SIGNIFICANT WEATHER AND/OR OBSTRUCTIONS TO VISIBILITY

IDZ012-014-290000-
SOUTHWEST IDAHO


CITY           SKY/WX    TMP DP  RH WIND       PRES   REMARKS
BOISE          SUNNY     69  26  20 N8        30.02F
CALDWELL       SUNNY     71  33  24 NW8       30.02F
MOUNTAIN HOME  SUNNY     74  38  26 NW9       30.01F
$$

IDZ016-017-290000-
SOUTHCENTRAL IDAHO


CITY           SKY/WX    TMP DP  RH WIND       PRES   REMARKS
BURLEY         SUNNY     65  31  28 W6G17     30.04F
JEROME         MOSUNNY   67  27  22 W13       30.05F
TWIN FALLS     SUNNY     67  29  24 W10       30.05F
$$

IDZ019>023-290000-
SOUTHEAST IDAHO


CITY           SKY/WX    TMP DP  RH WIND       PRES   REMARKS
IDAHO FALLS    SUNNY     64  29  26 S20G28    30.06S
POCATELLO      SUNNY     67  26  21 W15       30.07S
REXBURG        SUNNY     64  27  24 S18G24    30.05F
$$

IDZ006-010-011-018-031-032-290000-
CENTRAL IDAHO MOUNTAINS


CITY           SKY/WX    TMP DP  RH WIND       PRES   REMARKS
MCCALL         SUNNY     60  30  32 NW8       30.06F
HAILEY         MOSUNNY   63  34  34 S7        30.06F
STANLEY          N/A     61  24  24 VRB6      30.09S
SALMON         CLOUDY    63  34  34 NW5       29.98S
CHALLIS        PTSUNNY   67  21  17 N5        29.98F
$$

IDZ002-004-006-007-026-290000-
NORTHERN IDAHO


CITY           SKY/WX    TMP DP  RH WIND       PRES   REMARKS
LEWISTON       SUNNY     70  37  29 VRB3      30.02F
LOWELL           N/A     74  39  28 CALM      30.01F
COEUR D`ALENE  CLOUDY    61  37  41 S8        30.02F
MULLAN PASS    CLOUDY    44  30  57 MISG      30.09S
$$




USA.gov is the U.S. government's official web portal to all federal, state and local government web resources and services.